カタログに戻る

STARLINK-11648

運用中通信VLEO
NORAD 63313·PAYLOAD·🇺🇸 United States

打ち上げ Mar 18, 2025 から Cape Canaveral Space Force Station

Loading…

次のパス (今後24時間)

TLE

最新Source: CelesTrak SupGP

元期: Sep 15, 2026, 02:32 UTC

1 63313C 25057G   26258.10604167 -.00044782  00000+0 -34787-3 0  2589
2 63313  43.0005 202.9835 0001465 271.2616 164.9450 15.70857376    19

AllMySatでSTARLINK-11648をリアルタイム追跡

Download on the App Store